This is the latest recevied weather packets stored in our database for station/object KO6LQJ. If no packets are shown the sender has not sent any weather packets the latest 1 day(s).
| Time | Temp. | Humidity | Pressure | Rain* | Wind** | Luminosity | Snow |
|---|---|---|---|---|---|---|---|
| 1778019036 | 18.89° C | 43% | 1016.2 hPa | 0 mm | 0 m/s | 129 W/m² | - |
| 1778018733 | 18.89° C | 44% | 1016.2 hPa | 0 mm | 0 m/s | 115 W/m² | - |
| 1778018431 | 18.89° C | 43% | 1016.3 hPa | 0 mm | 0 m/s | 110 W/m² | - |
| 1778018129 | 19.44° C | 44% | 1016.3 hPa | 0 mm | 0.45 m/s, 116° | 139 W/m² | - |
| 1778017827 | 19.44° C | 45% | 1016.1 hPa | 0 mm | 0 m/s | 121 W/m² | - |
| 1778017525 | 18.89° C | 45% | 1016.2 hPa | 0 mm | 0 m/s | 110 W/m² | - |
| 1778017221 | 19.44° C | 44% | 1016.3 hPa | 0 mm | 0 m/s | 144 W/m² | - |
| 1778016919 | 19.44° C | 42% | 1016.3 hPa | 0 mm | 0.45 m/s, 49° | 149 W/m² | - |
| 1778016615 | 19.44° C | 44% | 1016.3 hPa | 0 mm | 0.45 m/s, 239° | 308 W/m² | - |
| 1778016312 | 19.44° C | 45% | 1016.3 hPa | 0 mm | 0 m/s | 206 W/m² | - |
| 1778016009 | 19.44° C | 45% | 1016.2 hPa | 0 mm | 0.89 m/s, 160° | 180 W/m² | - |
| 1778015706 | 20° C | 43% | 1016.1 hPa | 0 mm | 1.34 m/s, 141° | 167 W/m² | - |
| 1778015403 | 20° C | 43% | 1016.2 hPa | 0 mm | 0 m/s | 236 W/m² | - |
| 1778015099 | 19.44° C | 43% | 1016.2 hPa | 0 mm | 0.45 m/s, 164° | 229 W/m² | - |
| 1778014796 | 20° C | 43% | 1016.3 hPa | 0 mm | 0 m/s | 263 W/m² | - |
| 1778014495 | 20° C | 43% | 1016.2 hPa | 0 mm | 0 m/s | 268 W/m² | - |
| 1778014191 | 20.56° C | 43% | 1016.1 hPa | 0 mm | 0 m/s | 276 W/m² | - |
| 1778013889 | 20.56° C | 43% | 1016.1 hPa | 0 mm | 0 m/s | 322 W/m² | - |
| 1778013586 | 20.56° C | 43% | 1016.1 hPa | 0 mm | 1.34 m/s, 143° | 581 W/m² | - |
| 1778013282 | 20.56° C | 44% | 1015.9 hPa | 0 mm | 0 m/s | 279 W/m² | - |
| 1778012978 | 20.56° C | 45% | 1016 hPa | 0 mm | 0 m/s | 794 W/m² | - |
| 1778012675 | 20.56° C | 45% | 1016.1 hPa | 0 mm | 0 m/s | 315 W/m² | - |
| 1778012372 | 20.56° C | 46% | 1016.1 hPa | 0 mm | 0 m/s | 333 W/m² | - |
| 1778012069 | 20° C | 46% | 1016.2 hPa | 0 mm | 0 m/s | 337 W/m² | - |
| 1778011767 | 20.56° C | 46% | 1016 hPa | 0 mm | 0 m/s | 289 W/m² | - |
* Rain latest hour (hover to see other rain measurements)
** Current wind speed in m/s (hover to see current wind gust speed)